Regional Weather Roundup
Issued by NWS Huntsville, AL

Home | Current Version | Previous Version | Text Only | Print | Product List | Glossary On
Versions: 1 2 3 4 5 6 7 8 9 10 11 12 13 14 15 16 17 18 19 20 21 22 23 24 25 26 27 28 29 30 31 32 33 34 35 36 37 38 39 40 41 42 43 44 45 46 47 48 49 50
000
ASUS44 KHUN 261610
RWRHUN

WEATHER ROUNDUP FOR THE TENNESSEE VALLEY
NATIONAL WEATHER SERVICE HUNTSVILLE AL
1000 AM CST WED NOV 26 2014

ALZ001>004-261700-
NORTHWEST ALABAMA

CITY           SKY/WX    TMP DP  RH WIND       PRES   REMARKS
COURTLAND HCN    N/A     41 N/A N/A CALM        N/A
RUSSELLVILLE     N/A     41 N/A N/A MISG        N/A
SHOALS AIRPORT   N/A     42  29  59 S3        30.18S
SHOALS TVA RES   N/A     41 N/A N/A MISG        N/A
$$

ALZ005>007-016-261700-
NORTH CENTRAL ALABAMA

CITY           SKY/WX    TMP DP  RH WIND       PRES   REMARKS
CULLMAN AG STN   N/A     43 N/A N/A CALM        N/A
DECATUR AP     SUNNY     45  29  53 CALM      30.18S
HUNTSVILLE AP  MOSUNNY   46  29  51 CALM      30.18R
HUN NWS/UAH      N/A     45  25  44 SW2         N/A
MERIDIANVILLE  SUNNY     43  25  49 CALM      30.17S
REDSTONE ARSN  SUNNY     44  29  55 SW6       30.17R
VINEMONT AP    FAIR      44  28  52 NW3       30.18S
$$

ALZ008>010-261700-
NORTHEAST ALABAMA

CITY           SKY/WX    TMP DP  RH WIND       PRES   REMARKS
ALBERTVILLE    SUNNY     43  32  65 N7        30.15S
FORT PAYNE     SUNNY     45  23  42 W5        30.14S
SCOTTSBORO AP  SUNNY     45  28  53 CALM      30.16F
VALLEY HEAD      N/A     43 N/A N/A MISG        N/A
$$

TNZ076-096-097-261700-
SOUTHEASTERN MIDDLE TENNESSEE

CITY           SKY/WX    TMP DP  RH WIND       PRES   REMARKS
TULLAHOMA      SUNNY     39  27  60 CALM      30.14S
WINCHESTER     SUNNY     41  28  60 NW3       30.15S
$$

...SURROUNDING SITES...

CITY           SKY/WX    TMP DP  RH WIND       PRES   REMARKS
ATLANTA        SUNNY     51  27  39 NW15      30.10R
ANNISTON       SUNNY     47  28  47 S5        30.17F
BIRMINGHAM     SUNNY     47  27  45 CALM      30.20S
CHATTANOOGA    MOSUNNY   48  27  44 NW5       30.13R
CORINTH        FAIR      43  30  61 SE8       30.16S
DALTON         SUNNY     46  30  53 N9        30.12S
GADSDEN        SUNNY     46  27  46 N6        30.17F
GOLDEN TRNGL   SUNNY     45  30  57 S6        30.21R
HALEYVILLE     FAIR      44  27  51 CALM      30.19R
JACKSON TN     SUNNY     43  26  51 SE6       30.13F
LEWISBURG      FAIR      42  30  62 CALM      30.15S
MEMPHIS        CLOUDY    46  26  45 S12G21    30.10F
MURFREESBORO   FAIR      40  30  67 CALM      30.15S
NASHVILLE      MOSUNNY   42  29  59 CALM      30.15S
OXFORD MS      FAIR      43  27  52 S9        30.16F
ROME           SUNNY     49  27  42 W7        30.13S
SAVANNAH       SUNNY     41  30  65 S6        30.16S
TUPELO         SUNNY     45  30  55 S7        30.18F
TUSCALOOSA     SUNNY     45  30  55 S3        30.23S
$$

...GULF COAST WEATHER...

CITY           SKY/WX    TMP DP  RH WIND       PRES   REMARKS
GULFPORT       SUNNY     52  23  32 SE5       30.28S
PASCAGOULA     SUNNY     54  25  32 NE3       30.28S
MOBILE         SUNNY     52  22  30 W6        30.27S
GULF SHORES    SUNNY     53  28  38 NW3       30.26F
PENSACOLA      SUNNY     53  30  41 NW9       30.25F
DESTIN         SUNNY     54  31  41 NW10      30.25R
PANAMA CITY    SUNNY     54  37  52 N10       30.23R
APPALACHICOLA  SUNNY     58  35  42 NW13      30.20S
$$




USA.gov is the U.S. government's official web portal to all federal, state and local government web resources and services.